SCP
0 0 0 0 0 0 0 0 0 0 0 0 0 0 0 0 0 0 0 0 0 0 0 0 0 0 0 0 0 0 0 0 0 0 0 0 0 0 0 0 0 0 0 0
0 0 0 0 0 0 0 0 0 0 0 0 0 0 0 0 0 0 0 0 0 0 0 0 0 0 0 0 0 0 0 0 0 0 0 0 0 0 0 0 0 0 0 0
0 0 0 0 0 0 0 0 0 0 0 0 0 0 0 0 0 0 0 0 0 0 0 0 0 0 0 0 0 0 0 0 0 0 0 0 0 0 0 0 0 0 0 0
0 0 0 0 0 0 0 0 0 0 0 0 0 0 0 0 0 0 0 0 0 0 0 0 0 0 0 0 0 0 0 0 0 0 0 0 0 0 0 0 0 0 0 0
0 0 0 0 0 0 0 0 0 0 0 0 0 0 0 0 0 0 0 0 0 0 0 0 0 0 0 0 0 0 0 0 0 0 0 0 0 0 0 0 0 0 0 0
0 0 0 0 0 0 0 0 0 0 0 0 0 0 0 0 0 0 0 0 0 0 0 0 0 0 0 0 0 0 0 0 0 0 0 0 0 0 0 0 0 0 0 0
0 0 0 0 0 0 0 0 0 0 0 0 0 0 0 0 0 0 0 0 0 0 0 0 0 0 0 0 0 0 0 0 0 0 0 0 0 0 0 0 0 0 0 0
0 0 0 0 0 0 0 0 0 0 0 0 0 0 0 0 0 0 0 0 0 0 0 0 0 0 0 0 0 0 0 0 0 0 0 0 0 0 0 0 0 0 0 0
0 0 0 0 0 0 0 0 0 0 0 0 0 0 0 0 0 0 0 0 0 0 0 0 0 0 0 0 0 0 0 0 0 0 0 0 0 0 0 0 0 0 0 0
0 0 0 0 0 0 1 1 0 0 0 0 0 0 0 0 0 0 0 0 0 0 0 0 0 0 0 0 0 0 0 0 0 0 0 0 0 0 0 0 0 0 0 0
0 0 0 0 0 0 1 1 1 0 0 0 0 0 0 0 0 0 0 0 0 0 0 0 0 0 0 0 0 0 0 0 0 0 0 0 0 0 0 0 0 0 0 0
0 0 0 0 0 0 1 1 1 0 0 0 0 0 0 0 0 0 0 0 0 0 0 0 0 0 0 0 0 0 0 0 0 0 0 0 0 0 0 0 0 0 0 0
0 0 0 0 0 0 0 0 0 0 0 0 0 0 0 0 0 0 0 0 0 0 0 0 0 0 0 0 0 0 0 0 0 0 0 0 0 0 0 0 0 0 0 0
0 0 0 0 0 0 0 0 0 0 0 0 0 0 0 0 0 0 0 0 0 0 0 0 0 0 0 0 0 0 0 0 0 0 0 0 0 0 0 0 0 0 0 0
0 0 0 0 0 0 0 0 0 0 0 0 0 0 0 0 0 0 0 0 0 0 0 0 0 0 0 0 0 0 0 0 0 0 0 0 0 0 0 0 0 0 0 0
0 0 0 0 0 0 0 0 0 0 0 0 0 0 0 0 0 0 0 0 0 0 0 0 0 0 0 0 0 0 0 0 0 0 0 0 0 0 0 0 0 0 0 0
0 0 0 0 0 0 0 0 0 0 0 0 0 0 0 0 0 0 0 0 0 0 0 0 0 0 0 0 0 0 0 0 0 0 0 0 0 0 0 0 0 0 0 0
0 0 0 0 0 0 0 0 0 0 0 0 0 0 0 0 0 0 0 0 0 0 0 0 0 0 0 0 0 0 0 0 0 0 0 0 0 0 0 0 0 0 0 0
0 0 0 0 0 0 0 0 0 0 0 0 0 0 0 0 0 0 0 0 0 0 0 0 0 0 0 0 0 0 0 0 0 0 0 0 0 0 0 0 0 0 0 0
0 0 0 0 0 0 0 0 0 0 0 0 0 0 0 0 0 0 0 0 0 0 0 0 0 0 0 0 0 0 0 0 0 0 0 0 0 0 0 0 0 0 0 0
0 0 0 0 0 0 0 0 0 0 0 0 0 0 0 0 0 0 0 0 0 0 0 0 0 0 0 0 0 0 0 0 0 0 0 0 0 0 0 0 0 0 0 0
0 0 0 0 0 0 0 0 0 0 0 0 0 0 0 0 0 0 0 0 0 0 0 0 0 0 0 0 0 0 0 0 0 0 0 0 0 0 0 0 0 0 0 0
0 0 0 0 0 0 0 0 0 0 0 0 0 0 0 0 0 0 0 0 0 0 0 0 0 0 0 0 0 0 0 0 0 0 0 0 0 0 0 0 0 0 0 0
0 0 0 0 0 0 0 0 0 0 0 0 0 0 0 0 0 0 0 0 0 0 0 0 0 0 0 0 0 0 0 0 0 0 0 0 0 0 0 0 0 0 0 0
0 0 0 0 0 0 0 0 0 0 0 0 0 0 0 0 0 0 0 0 0 0 0 0 0 0 0 0 0 0 0 0 0 0 0 0 0 0 0 0 0 0 0 0
0 0 0 0 0 0 0 0 0 0 0 0 0 0 0 0 0 0 0 0 0 0 0 0 0 0 0 0 0 0 0 0 0 0 0 0 0 0 0 0 0 0 0 0
Wind_Speed
9 9 14 16 13 5 7 7 7 6 4 6 9 13 13 8 6 8 9 9 10 13 13 9 9 10 10 10 12 13 14 13 11 9 9 9 9 8 8 8 9 10 10 10
9 17 14 8 10 7 6 6 6 3 2 5 6 12 12 10 9 11 12 12 12 11 9 9 9 10 13 14 14 14 15 14 14 12 9 6 6 6 7 7 9 11 11 11
17 8 10 9 9 12 11 10 8 4 0 1 3 9 10 10 9 10 11 11 11 13 14 11 10 11 12 14 16 15 17 16 15 12 6 4 4 3 6 8 10 11 12 12
15 6 11 12 13 14 15 9 8 6 3 4 4 8 9 8 10 12 14 13 14 14 13 11 11 11 14 16 15 16 16 16 14 14 11 13 12 13 12 9 9 9 12 12
12 11 14 16 14 13 5 8 9 7 6 6 5 8 10 5 11 12 13 14 15 15 14 14 13 14 13 13 13 14 14 15 14 15 16 15 15 13 7 7 9 10 10 12
4 5 10 9 7 10 7 6 3 4 6 14 14 11 12 8 11 8 9 12 13 13 13 14 12 10 10 10 11 12 13 15 14 17 17 18 18 15 11 11 11 10 9 10
9 6 4 6 9 9 9 8 6 9 10 11 9 11 14 9 10 11 12 12 12 11 11 11 11 10 10 10 11 12 14 16 15 17 18 19 19 17 17 14 13 11 10 10
14 12 12 9 11 12 15 13 10 8 7 4 6 13 12 8 9 9 10 11 10 11 10 11 11 10 10 11 11 12 14 16 15 16 18 17 17 14 13 15 12 12 11 11
13 10 6 8 6 12 11 12 7 2 1 3 7 9 12 6 7 8 10 10 13 12 11 11 10 9 9 10 11 13 14 14 14 16 16 15 16 16 15 13 12 10 9 8
7 6 5 5 4 6 8 8 6 9 8 8 7 8 10 6 9 10 11 13 14 12 11 10 9 8 8 8 8 9 12 14 13 13 13 12 14 15 14 11 11 11 10 9
5 6 5 8 12 14 9 10 8 7 6 7 7 10 10 11 10 11 13 13 12 11 10 8 7 5 6 5 6 7 9 10 10 11 12 11 11 11 11 11 12 11 10 10
6 5 5 6 3 6 8 10 12 10 8 7 6 12 5 8 7 8 10 10 9 9 7 7 6 5 5 5 5 6 7 8 9 9 9 10 10 9 10 12 12 10 10 10
10 8 6 2 3 5 8 9 12 8 4 6 8 13 3 4 6 7 8 9 8 7 7 6 6 5 5 5 5 5 6 6 6 6 7 8 8 9 10 10 9 9 9 9
9 6 8 11 8 8 8 10 12 12 10 11 14 18 13 8 7 7 7 8 7 7 7 7 7 6 6 5 5 5 5 4 4 5 6 7 7 8 8 7 6 7 7 8
6 6 6 5 3 5 7 10 13 17 16 13 14 19 22 13 9 8 8 8 8 9 9 9 8 7 6 5 5 4 4 4 4 4 5 6 5 4 4 4 4 4 5 6
5 4 4 4 5 6 7 11 13 15 15 16 16 23 20 12 8 9 9 8 10 11 11 10 8 7 7 6 6 5 5 4 4 4 4 3 3 3 3 3 3 3 4 4
7 6 5 5 4 3 11 16 16 13 13 14 21 27 15 12 13 12 10 10 12 12 11 10 9 8 7 7 6 6 5 4 4 4 3 3 3 3 3 3 3 3 3 2
8 7 4 3 4 11 11 7 13 16 17 17 17 18 16 16 14 11 11 12 12 11 11 11 9 8 6 5 4 3 3 4 4 4 3 3 4 4 3 3 3 2 2 2
6 8 5 4 5 8 8 5 9 12 16 15 19 20 17 11 9 12 10 10 12 11 10 9 7 6 5 4 4 3 3 3 4 4 4 4 5 5 4 4 3 2 2 2
4 5 5 5 5 10 10 6 5 5 11 8 11 15 13 6 9 14 5 6 8 8 7 6 5 3 3 3 2 4 4 4 5 5 4 4 4 5 5 5 3 3 3 2
7 6 8 7 7 10 8 4 5 9 10 3 5 8 7 9 13 10 5 5 5 5 5 4 3 2 3 2 3 4 4 5 4 3 3 3 4 4 4 4 3 3 3 3
10 8 8 7 8 13 4 4 7 5 3 3 4 5 7 10 11 8 6 5 4 4 4 2 2 2 2 1 2 3 4 3 2 3 4 3 3 3 3 4 4 3 4 4
8 9 7 9 9 3 3 4 1 3 4 5 6 8 8 9 9 8 7 6 5 4 3 2 2 2 2 2 0 2 2 1 3 4 4 4 4 3 3 4 4 3 3 3
3 1 3 5 5 3 1 0 3 4 5 6 8 9 8 8 8 8 6 6 5 4 3 2 1 1 2 2 3 2 2 1 3 4 4 4 4 4 3 3 3 3 3 3
4 3 3 5 4 3 1 3 6 6 6 7 9 8 8 7 7 6 6 6 5 4 3 2 1 1 2 3 3 4 3 0 3 4 4 4 4 4 4 3 3 3 2 3
2 3 5 5 1 3 5 6 8 8 8 9 9 9 8 6 6 5 5 5 4 4 3 3 2 2 3 3 3 4 4 2 2 3 3 3 3 3 4 4 5 9 7 9
Wind_Direction
175 191 205 201 199 188 160 171 201 216 204 188 228 249 258 256 244 249 250 247 244 245 247 236 221 214 209 205 203 204 204 202 194 197 202 206 212 210 210 210 207 204 202 199
184 215 210 183 186 192 185 194 205 231 198 198 246 260 259 250 239 235 240 244 244 249 256 241 225 211 209 211 210 208 208 202 201 204 202 200 199 206 210 208 209 207 206 202
207 211 174 170 181 197 207 207 200 193 135 249 305 285 257 254 238 243 240 240 241 240 245 243 229 219 214 214 212 210 209 206 204 200 186 178 180 191 203 211 214 211 208 207
214 198 171 184 196 189 222 202 187 183 182 238 199 272 261 243 249 243 243 241 244 244 242 241 233 224 216 217 213 212 210 208 203 195 195 197 206 216 218 214 213 208 207 210
205 180 180 197 198 181 186 161 178 194 207 242 213 253 267 225 248 246 241 240 242 243 240 239 234 228 221 216 211 211 209 209 202 199 203 205 216 223 216 203 208 211 210 211
199 177 185 192 180 172 135 121 147 183 208 240 222 226 263 217 225 237 239 239 242 244 242 243 241 232 228 217 210 208 206 210 204 202 205 209 216 218 212 209 213 214 215 214
195 206 194 151 150 167 164 163 197 207 215 236 191 211 250 222 213 215 229 238 242 244 244 246 244 235 230 220 213 208 207 212 207 205 208 212 216 217 218 217 217 215 216 218
196 205 194 181 178 182 190 186 202 209 212 235 179 223 249 230 227 228 236 243 250 250 245 245 244 237 232 224 215 209 210 214 208 207 211 214 215 217 222 221 218 217 220 221
190 211 176 188 168 160 178 204 199 192 188 232 230 260 291 252 251 247 249 252 253 253 251 249 248 240 233 227 218 211 212 215 211 209 211 213 214 217 221 220 218 220 221 215
152 180 181 166 147 190 178 160 165 200 209 228 240 235 242 229 230 237 241 244 250 254 256 256 253 246 239 231 224 214 213 216 215 211 211 214 215 217 221 218 217 218 219 212
149 158 166 169 188 185 172 183 191 198 205 208 239 250 223 216 214 223 235 242 248 252 256 261 267 260 251 245 232 222 217 216 214 211 212 213 215 215 216 220 222 222 220 213
155 151 187 207 213 182 188 194 190 205 213 212 237 260 226 212 222 225 240 248 254 258 262 265 266 265 258 250 240 229 222 218 217 212 209 213 214 211 214 221 223 220 221 218
151 162 163 186 219 192 206 204 204 213 208 213 226 258 243 218 243 243 250 263 267 270 274 276 272 264 257 251 244 236 228 225 219 205 205 211 213 213 218 222 222 219 220 221
153 167 190 200 192 176 193 202 201 207 226 233 235 255 267 260 261 270 268 266 269 273 272 271 271 266 261 255 245 237 236 225 211 198 199 208 212 214 219 221 220 219 218 220
155 185 200 222 200 174 196 206 206 216 224 233 243 249 257 253 249 254 257 263 269 272 270 264 260 259 256 254 249 236 232 217 196 191 199 211 210 206 204 207 211 212 212 219
151 167 172 220 224 214 229 222 215 223 228 237 253 260 258 257 250 251 251 250 255 259 261 262 259 257 253 243 238 230 224 211 184 189 205 202 183 181 191 197 197 201 211 216
156 152 165 216 201 187 237 220 214 218 217 218 237 250 259 257 248 242 241 241 245 249 255 258 256 252 252 245 228 222 215 187 176 187 194 184 177 181 188 182 180 199 211 211
153 150 157 167 154 223 237 209 206 221 232 224 235 251 250 248 254 247 234 235 246 248 250 253 251 250 252 249 232 212 185 173 177 184 189 183 178 181 172 166 178 185 179 195
163 154 152 167 211 263 279 232 197 209 239 229 236 250 258 264 276 265 240 232 239 243 245 249 246 243 246 241 219 184 185 177 178 193 198 190 176 173 170 176 181 172 162 168
167 156 155 172 195 228 240 227 204 186 253 247 233 248 260 251 254 263 262 254 253 251 248 248 251 247 248 251 191 179 196 189 202 204 198 181 168 168 173 174 166 158 155 156
168 183 198 199 220 251 251 243 145 188 239 271 247 255 258 239 247 278 300 281 271 262 255 250 251 249 253 245 173 194 201 211 211 176 160 157 160 161 159 151 146 143 140 135
174 180 195 189 214 243 237 157 188 231 305 319 301 285 277 270 276 288 295 295 299 298 293 282 260 265 294 297 175 198 216 218 164 148 146 148 146 142 142 143 137 134 138 137
192 191 188 197 215 221 148 172 251 342 315 316 309 306 301 292 291 295 297 300 302 295 293 293 259 274 331 353 351 221 253 173 151 142 146 142 134 133 136 140 139 135 137 140
227 172 195 231 246 244 200 61 354 342 316 314 312 307 301 292 295 299 299 303 308 315 314 320 313 280 316 355 2 326 308 175 148 150 147 140 140 132 125 126 129 132 141 143
209 181 207 237 272 314 301 19 342 328 327 326 320 311 305 299 295 298 304 309 313 322 335 352 338 305 335 11 8 358 343 33 146 143 141 139 137 134 126 112 102 111 92 109
189 185 199 229 277 281 289 334 337 328 327 328 324 319 320 309 300 312 314 320 324 331 348 2 11 6 0 13 16 2 347 343 150 145 144 144 139 131 126 120 98 78 86 86